Weather History for Valparaiso, IN

Change the Weather History Date:

Saturday, October 5, 2013

  Actual Average Record
Temperature  
Mean Temperature 72 °F 56 °F  
Max Temperature 79 °F 67 °F 84 °F (2005)
Min Temperature 64 °F 45 °F 30 °F (2004)
Degree Days  
Heating Degree Days 0 10  
Month to date heating degree days 0 47  
Since 1 July heating degree days 108 177  
Cooling Degree Days 7 1  
Month to date cooling degree days 25 5  
Year to date cooling degree days 810 707  
Growing Degree Days 21 (Base 50)    
Moisture  
Dew Point 66 °F    
Average Humidity 94    
Maximum Humidity 100    
Minimum Humidity 69    
Precipitation  
Precipitation 0.59 in 0.10 in 1.00 in (2001)
Month to date precipitation 1.19 0.49  
Year to date precipitation 29.44 29.24  
Sea Level Pressure  
Sea Level Pressure 29.90 in    
Wind  
Wind Speed 7 mph (South)    
Max Wind Speed 21 mph    
Max Gust Speed 29 mph    
Visibility 7 miles    
Events Rain    
T = Trace of Precipitation, MM = Missing Value Source: NWS Daily Summary

Daily Weather History Graph

Daily Weather History Graph

Search for Another Location

Airport:

Trip Planner

Search our weather history database for the weather conditions in past years. The results will help you decide how hot, cold, wet, or windy it might be!

Date:

Astronomy

Oct. 05, 2013 Rise Set
Actual Time 6:49 AM CDT 6:22 PM CDT
Civil Twilight 6:21 AM CDT 6:50 PM CDT
Nautical Twilight 5:49 AM CDT 7:22 PM CDT
Astronomical Twilight 5:17 AM CDT 7:54 PM CDT
Moon 7:29 AM CDT (10/5) 6:40 PM CDT (10/5)
Length of Visible Light 12h 28m
Length of Day
11h 33m
New Moon, 1% of the Moon is Illuminated
Oct 5
New Moon
Oct 11
First Quarter
Oct 18
Full
Oct 26
Last Quarter
Nov 3
New

Hourly Weather History & Observations

Time (CDT) Temp. Dew Point Humidity Pressure Visibility Wind Dir Wind Speed Gust Speed Precip Events Conditions
12:53 AM 69.1 °F 66.9 °F 93% 29.98 in 8.0 mi Calm Calm - N/A   Clear
1:53 AM 68.0 °F 66.9 °F 96% 29.97 in 7.0 mi South 5.8 mph - N/A   Clear
2:53 AM 69.1 °F 66.9 °F 93% 29.95 in 8.0 mi SSW 6.9 mph - N/A   Clear
3:53 AM 68.0 °F 66.9 °F 96% 29.95 in 8.0 mi South 6.9 mph - N/A   Clear
4:53 AM 68.0 °F 66.9 °F 96% 29.96 in 8.0 mi SSW 4.6 mph - N/A   Clear
5:53 AM 66.0 °F 66.0 °F 100% 29.96 in 5.0 mi Calm Calm - N/A   Clear
6:53 AM 66.0 °F 66.0 °F 100% 29.95 in 2.5 mi SE 4.6 mph - N/A   Clear
7:05 AM 66.2 °F 66.2 °F 100% 29.96 in 1.8 mi SSE 4.6 mph - N/A   Partly Cloudy
7:20 AM 66.2 °F 66.2 °F 100% 29.96 in 2.0 mi SSE 3.5 mph - N/A   Scattered Clouds
7:41 AM 66.2 °F 66.2 °F 100% 29.96 in 2.5 mi SSE 5.8 mph - N/A   Mostly Cloudy
7:53 AM 66.9 °F 66.9 °F 100% 29.95 in 3.0 mi SSE 5.8 mph - N/A   Scattered Clouds
8:28 AM 68.0 °F 68.0 °F 100% 29.96 in 4.0 mi South 5.8 mph - N/A   Mostly Cloudy
8:41 AM 69.8 °F 68.0 °F 94% 29.96 in 5.0 mi South 5.8 mph - N/A   Overcast
8:53 AM 69.1 °F 68.0 °F 96% 29.95 in 6.0 mi South 6.9 mph - N/A   Overcast
9:53 AM 71.1 °F 69.1 °F 93% 29.95 in 8.0 mi SSW 6.9 mph - N/A   Overcast
10:41 AM 73.4 °F 69.8 °F 88% 29.96 in 9.0 mi SSW 6.9 mph - N/A   Overcast
10:53 AM 73.0 °F 69.1 °F 87% 29.94 in 9.0 mi SSW 8.1 mph - N/A   Overcast
11:53 AM 73.0 °F 69.1 °F 87% 29.93 in 9.0 mi SSW 6.9 mph - N/A   Overcast
12:53 PM 75.9 °F 69.1 °F 79% 29.90 in 10.0 mi SE 5.8 mph - N/A   Overcast
1:37 PM 78.8 °F 68.0 °F 69% 29.89 in 10.0 mi South 8.1 mph - N/A   Scattered Clouds
1:49 PM 78.8 °F 68.0 °F 69% 29.88 in 10.0 mi SSE 6.9 mph - N/A   Mostly Cloudy
1:53 PM 78.1 °F 68.0 °F 71% 29.87 in 10.0 mi SSE 9.2 mph - N/A   Mostly Cloudy
2:53 PM 70.0 °F 64.0 °F 81% 29.87 in 10.0 mi SE 12.7 mph 18.4 mph N/A   Partly Cloudy
3:53 PM 71.1 °F 66.0 °F 84% 29.82 in 10.0 mi SSE 10.4 mph 16.1 mph 0.00 in Rain Light Rain
4:53 PM 71.1 °F 68.0 °F 90% 29.84 in 10.0 mi South 10.4 mph - 0.00 in   Partly Cloudy
5:53 PM 68.0 °F 64.0 °F 87% 29.85 in 10.0 mi South 8.1 mph - 0.00 in   Mostly Cloudy
6:53 PM 66.9 °F 64.0 °F 90% 29.84 in 10.0 mi South 5.8 mph - N/A   Scattered Clouds
7:14 PM 66.2 °F 64.4 °F 94% 29.86 in 1.8 mi South 17.3 mph 24.2 mph 0.15 in Rain Heavy Rain
7:22 PM 66.2 °F 64.4 °F 94% 29.86 in 2.0 mi South 12.7 mph 24.2 mph 0.20 in Rain Rain
7:28 PM 66.2 °F 66.2 °F 100% 29.87 in 3.0 mi SSW 13.8 mph 24.2 mph 0.24 in Rain Heavy Rain
7:53 PM 64.9 °F 64.9 °F 100% 29.86 in 3.0 mi SW 12.7 mph - 0.32 in Rain Heavy Rain
8:02 PM 64.4 °F 64.4 °F 100% 29.87 in 2.5 mi SSW 15.0 mph - 0.08 in Rain Heavy Rain
8:31 PM 64.4 °F 64.4 °F 100% 29.85 in 6.0 mi South 6.9 mph - 0.24 in Rain Rain
8:53 PM 64.9 °F 64.9 °F 100% 29.84 in 5.0 mi South 5.8 mph - 0.26 in Rain Light Rain
9:21 PM 64.4 °F 64.4 °F 100% 29.85 in 10.0 mi South 5.8 mph - 0.01 in   Overcast
9:53 PM 64.9 °F 64.9 °F 100% 29.84 in 10.0 mi SSE 3.5 mph - 0.01 in   Overcast
10:24 PM 66.2 °F 66.2 °F 100% 29.84 in 9.0 mi South 5.8 mph - N/A   Overcast
10:33 PM 66.2 °F 66.2 °F 100% 29.84 in 10.0 mi South 6.9 mph - N/A   Overcast
10:41 PM 66.2 °F 66.2 °F 100% 29.84 in 9.0 mi South 5.8 mph - N/A   Overcast
10:50 PM 66.2 °F 66.2 °F 100% 29.84 in 10.0 mi South 8.1 mph - N/A   Overcast
10:53 PM 66.0 °F 66.0 °F 100% 29.83 in 10.0 mi SSW 8.1 mph - N/A   Overcast
11:53 PM 64.9 °F 64.9 °F 100% 29.79 in 9.0 mi SSE 9.2 mph - N/A   Overcast